| time (UTC) | temp F | wind direction | speed MPH | gust MPH | rain 1hr in | rain 24hr in | rain mn in | humidity % | barometer mb |
| 20260504050117 | 39 | 320 | 0.0 | 0.0 | 0.00 | 0.00 | 0.00 | 77 | 1013.6 |
| 20260504044547 | 40 | 320 | 0.0 | 0.0 | 0.00 | 0.00 | 0.00 | 77 | 1013.7 |
| 20260504043044 | 40 | 320 | 0.0 | 0.0 | 0.00 | 0.00 | 0.00 | 75 | 1013.6 |
| 20260504041538 | 41 | 320 | 0.0 | 0.0 | 0.00 | 0.00 | 0.00 | 74 | 1013.6 |
| 20260504040036 | 42 | 320 | 0.0 | 0.0 | 0.00 | 0.00 | 0.00 | 72 | 1013.6 |
| 20260504034540 | 43 | 320 | 0.0 | 0.0 | 0.00 | 0.00 | 0.00 | 71 | 1013.7 |
| 20260504033030 | 44 | 319 | 0.0 | 1.0 | 0.00 | 0.00 | 0.00 | 68 | 1013.6 |
| 20260504031601 | 44 | 319 | 0.0 | 0.0 | 0.00 | 0.00 | 0.00 | 67 | 1013.6 |
| 20260504030057 | 45 | 320 | 0.0 | 2.0 | 0.00 | 0.00 | 0.00 | 65 | 1013.5 |
| 20260504024553 | 45 | 320 | 0.0 | 2.0 | 0.00 | 0.00 | 0.00 | 66 | 1013.6 |
| 20260504023054 | 46 | 320 | 1.0 | 3.0 | 0.00 | 0.00 | 0.00 | 63 | 1013.4 |
| 20260504021545 | 50 | 44 | 2.0 | 5.0 | 0.00 | 0.00 | 0.00 | 56 | 1013.4 |
| 20260504020045 | 52 | 98 | 1.0 | 8.0 | 0.00 | 0.00 | 0.00 | 48 | 1013.4 |
| 20260504014515 | 52 | 86 | 2.0 | 6.0 | 0.00 | 0.00 | 0.00 | 48 | 1013.4 |
| 20260504013014 | 53 | 64 | 2.0 | 8.0 | 0.00 | 0.00 | 0.00 | 46 | 1013.3 |
| 20260504011512 | 54 | 84 | 1.0 | 5.0 | 0.00 | 0.00 | 0.00 | 45 | 1013.2 |
| 20260504010011 | 54 | 68 | 2.0 | 5.0 | 0.00 | 0.00 | 0.00 | 45 | 1013.1 |
| 20260504004519 | 55 | 92 | 3.0 | 9.0 | 0.00 | 0.00 | 0.00 | 42 | 1013.1 |
| 20260504003011 | 56 | 94 | 3.0 | 9.0 | 0.00 | 0.00 | 0.00 | 42 | 1012.9 |
| 20260504001510 | 55 | 96 | 1.0 | 8.0 | 0.00 | 0.00 | 0.00 | 43 | 1012.9 |
| 20260504000009 | 56 | 113 | 3.0 | 6.0 | 0.00 | 0.00 | 0.00 | 41 | 1012.7 |
| 20260503234512 | 57 | 85 | 4.0 | 12.0 | 0.00 | 0.00 | 0.00 | 40 | 1012.6 |
| 20260503233007 | 58 | 150 | 3.0 | 5.0 | 0.00 | 0.00 | 0.00 | 39 | 1012.6 |
| 20260503231537 | 58 | 108 | 1.0 | 10.0 | 0.00 | 0.00 | 0.00 | 38 | 1012.4 |
| 20260503230041 | 59 | 150 | 2.0 | 5.0 | 0.00 | 0.00 | 0.00 | 38 | 1012.5 |
| 20260503224507 | 59 | 108 | 3.0 | 14.0 | 0.00 | 0.00 | 0.00 | 37 | 1012.4 |
| 20260503223006 | 61 | 98 | 4.0 | 9.0 | 0.00 | 0.00 | 0.00 | 35 | 1012.4 |
| 20260503221534 | 61 | 103 | 1.0 | 5.0 | 0.00 | 0.00 | 0.00 | 35 | 1012.4 |
| 20260503220045 | 61 | 113 | 3.0 | 6.0 | 0.00 | 0.00 | 0.00 | 36 | 1012.6 |
| 20260503214503 | 60 | 143 | 4.0 | 14.0 | 0.00 | 0.00 | 0.00 | 36 | 1012.6 |
| 20260503213008 | 60 | 92 | 2.0 | 10.0 | 0.00 | 0.00 | 0.00 | 36 | 1012.5 |
| 20260503211532 | 60 | 60 | 3.0 | 9.0 | 0.00 | 0.00 | 0.00 | 36 | 1012.4 |
| 20260503210032 | 60 | 98 | 4.0 | 14.0 | 0.00 | 0.00 | 0.00 | 36 | 1012.4 |
| 20260503204503 | 60 | 120 | 5.0 | 12.0 | 0.00 | 0.00 | 0.00 | 35 | 1012.4 |
| 20260503203001 | 60 | 206 | 6.0 | 20.0 | 0.00 | 0.00 | 0.00 | 36 | 1012.5 |
| 20260503201529 | 61 | 123 | 3.0 | 15.0 | 0.00 | 0.00 | 0.00 | 36 | 1012.8 |
| 20260503200025 | 59 | 217 | 4.0 | 12.0 | 0.00 | 0.00 | 0.00 | 35 | 1013.2 |
| 20260503194519 | 60 | 152 | 6.0 | 12.0 | 0.00 | 0.00 | 0.00 | 35 | 1013.5 |
| 20260503193015 | 59 | 297 | 6.0 | 14.0 | 0.00 | 0.00 | 0.00 | 36 | 1013.5 |
| 20260503191519 | 60 | 206 | 3.0 | 11.0 | 0.00 | 0.00 | 0.00 | 37 | 1013.9 |
| 20260503190010 | 60 | 138 | 3.0 | 10.0 | 0.00 | 0.00 | 0.00 | 39 | 1014.0 |
| 20260503184505 | 59 | 120 | 6.0 | 12.0 | 0.00 | 0.00 | 0.00 | 38 | 1014.3 |
| 20260503183004 | 58 | 249 | 3.0 | 16.0 | 0.00 | 0.00 | 0.00 | 38 | 1014.2 |
| 20260503181503 | 58 | 125 | 6.0 | 14.0 | 0.00 | 0.00 | 0.00 | 39 | 1014.4 |
| 20260503180003 | 58 | 101 | 6.0 | 12.0 | 0.00 | 0.00 | 0.00 | 38 | 1014.4 |
| 20260503174529 | 58 | 121 | 3.0 | 10.0 | 0.00 | 0.00 | 0.00 | 39 | 1014.4 |
| 20260503173027 | 57 | 145 | 3.0 | 8.0 | 0.00 | 0.00 | 0.00 | 40 | 1014.6 |
| 20260503171555 | 56 | 115 | 3.0 | 8.0 | 0.00 | 0.00 | 0.00 | 40 | 1014.8 |
| 20260503081534 | 37 | 164 | 3.0 | 8.0 | 0.00 | 0.00 | 0.00 | 72 | 1014.8 |
| 20260503071526 | 37 | 30 | 2.0 | 3.0 | 0.00 | 0.00 | 0.00 | 72 | 1014.3 |
| 20260503054553 | 39 | 131 | 1.0 | 4.0 | 0.00 | 0.00 | 0.00 | 73 | 1014.4 |
| 20260503053046 | 39 | 195 | 1.0 | 7.0 | 0.00 | 0.00 | 0.00 | 73 | 1014.3 |
| 20260503051543 | 39 | 137 | 0.0 | 3.0 | 0.00 | 0.00 | 0.00 | 73 | 1014.2 |